This is the latest recevied weather packets stored in our database for station/object W2JGA. If no packets are shown the sender has not sent any weather packets the latest 10 day(s).
| Time | Temp. | Humidity | Pressure | Rain* | Wind** | Luminosity | Snow |
|---|---|---|---|---|---|---|---|
| 1777737325 | 24.44° C | 40% | 1017.9 hPa | 0 mm | - | 394 W/m² | - |
| 1777737021 | 24.44° C | 41% | 1017.9 hPa | 0 mm | - | 373 W/m² | - |
| 1777736717 | 24.44° C | 41% | 1018.3 hPa | 0 mm | - | 369 W/m² | - |
| 1777736078 | 23.89° C | 42% | 1018.3 hPa | 0 mm | - | 323 W/m² | - |
| 1777735775 | 23.33° C | 43% | 1018.3 hPa | 0 mm | - | 320 W/m² | - |
| 1777735472 | 23.33° C | 43% | 1018.3 hPa | 0 mm | - | 298 W/m² | - |
| 1777735170 | 22.78° C | 44% | 1017.9 hPa | 0 mm | - | 268 W/m² | - |
| 1777734866 | 22.78° C | 44% | 1018.3 hPa | 0 mm | - | 245 W/m² | - |
| 1777734564 | 22.78° C | 44% | 1017.9 hPa | 0 mm | - | 239 W/m² | - |
| 1777734261 | 22.78° C | 44% | 1017.9 hPa | 0 mm | - | 244 W/m² | - |
| 1777733957 | 22.78° C | 45% | 1017.9 hPa | 0 mm | - | 214 W/m² | - |
| 1777733654 | 22.78° C | 45% | 1017.9 hPa | 0 mm | - | 185 W/m² | - |
| 1777733350 | 22.22° C | 44% | 1017.9 hPa | 0 mm | - | 153 W/m² | - |
| 1777733047 | 22.78° C | 44% | 1017.6 hPa | 0 mm | - | 141 W/m² | - |
| 1777732743 | 22.22° C | 42% | 1017.6 hPa | 0 mm | - | 117 W/m² | - |
| 1777732440 | 22.22° C | 42% | 1017.6 hPa | 0 mm | - | 111 W/m² | - |
| 1777732138 | 22.22° C | 42% | 1017.6 hPa | 0 mm | - | 112 W/m² | - |
| 1777731834 | 21.67° C | 43% | 1017.6 hPa | 0 mm | - | 91 W/m² | - |
| 1777731531 | 21.67° C | 43% | 1017.6 hPa | 0 mm | - | 88 W/m² | - |
| 1777731230 | 21.67° C | 43% | 1017.6 hPa | 0 mm | - | 39 W/m² | - |
| 1777730927 | 21.11° C | 44% | 1017.2 hPa | 0 mm | - | 39 W/m² | - |
| 1777730624 | 21.11° C | 45% | 1017.6 hPa | 0 mm | - | 38 W/m² | - |
| 1777730321 | 20.56° C | 46% | 1017.2 hPa | 0 mm | - | 38 W/m² | - |
| 1777730017 | 20.56° C | 47% | 1017.6 hPa | 0 mm | - | 35 W/m² | - |
| 1777729713 | 20° C | 47% | 1017.2 hPa | 0 mm | - | 42 W/m² | - |
* Rain latest hour (hover to see other rain measurements)
** Current wind speed in m/s (hover to see current wind gust speed)